Wind_Speed
32 31 31 31 31 32 32 33 33 34 34 34 34 34 34 35 36 37 38 39 40 40 41 42 43 44 45 46 47 48 48 49 50 50 51 52 53 53 54 54 55 55
33 34 34 34 34 34 35 35 35 35 34 34 34 35 35 36 37 38 39 40 40 41 42 43 44 45 46 47 48 48 49 50 50 51 52 53 53 54 54 54 55 55
34 35 35 35 35 36 36 36 35 35 34 34 34 35 36 36 37 38 39 40 41 42 43 44 45 46 47 47 48 49 50 50 51 52 52 53 54 54 54 55 55 55
34 35 35 35 35 36 35 34 33 32 32 32 33 33 34 35 36 38 39 40 41 42 43 44 45 46 47 48 49 50 50 51 51 52 53 54 54 55 55 55 55 55
33 33 33 34 33 33 32 30 30 30 29 30 31 32 34 35 36 38 39 40 41 42 44 45 46 47 48 49 49 50 51 51 52 53 54 54 54 54 55 54 54 54
31 31 31 30 30 29 27 27 28 28 29 30 32 33 34 36 37 38 40 41 42 43 44 46 47 48 49 49 50 51 51 51 52 53 53 53 53 54 53 53 53 53
29 29 29 28 28 27 26 27 28 29 30 32 33 35 36 37 38 40 41 42 43 44 45 46 47 48 49 50 51 51 52 52 52 53 53 53 53 53 52 52 52 52
29 29 29 28 28 28 28 29 30 31 33 34 35 37 38 39 40 42 42 43 44 45 46 47 48 49 50 51 52 53 53 53 53 53 53 52 52 52 51 51 51 51
31 30 30 30 29 30 30 31 33 34 35 36 37 38 40 41 42 43 44 45 46 47 48 49 50 51 52 53 53 53 53 53 53 52 51 50 50 50 50 50 50 50
33 32 32 31 32 32 33 34 35 36 37 38 39 40 42 43 44 45 46 47 48 49 50 51 51 52 53 53 53 53 53 52 51 49 49 49 49 49 49 50 49 50
35 34 34 34 35 36 36 37 38 38 39 40 41 42 44 45 46 47 48 49 49 50 51 51 52 52 52 52 52 51 51 49 48 48 47 48 48 49 49 50 49 50
37 36 36 37 38 39 40 40 40 41 41 42 44 45 46 47 47 48 49 49 50 51 51 51 51 51 50 50 49 49 48 47 46 46 47 47 48 49 49 49 49 49
39 39 40 40 41 42 42 42 42 43 44 45 46 46 47 47 48 48 48 48 49 49 49 49 49 48 47 47 46 46 45 45 45 46 47 48 49 49 49 49 49 49
41 41 42 43 43 44 44 44 44 45 45 46 47 46 46 46 46 46 46 47 48 48 48 48 47 46 45 45 45 45 45 46 47 48 48 49 50 50 50 49 49 48
43 43 44 44 45 45 45 45 45 46 47 47 46 44 44 44 44 45 46 47 47 47 47 46 45 44 44 44 44 45 46 48 49 49 50 50 49 48 47 46 45 45
45 45 45 46 46 46 46 46 46 47 46 44 43 42 42 42 44 46 47 47 47 46 45 43 42 42 43 44 45 46 48 49 49 48 47 46 44 43 42 41 41 42
47 47 47 48 48 47 47 47 47 45 43 41 40 41 42 44 45 46 46 45 45 43 42 42 42 42 43 44 45 46 46 45 44 43 41 40 39 39 39 39 40 40
49 49 49 48 48 47 47 46 45 42 39 40 41 42 44 45 45 45 44 44 42 42 41 41 41 42 42 43 43 43 42 40 39 38 37 37 38 38 39 39 40 40
50 49 49 49 48 47 46 44 41 39 39 40 41 42 43 43 43 43 42 41 40 39 39 39 40 40 40 40 40 39 38 37 36 36 36 36 37 38 40 40 40 40
50 50 49 48 47 45 44 41 39 39 39 40 40 40 41 41 40 39 38 37 37 37 37 37 37 38 38 37 37 36 36 35 35 35 36 37 38 39 40 41 41 41
51 50 49 47 45 44 42 40 39 39 38 37 37 38 39 39 37 36 35 35 34 34 34 34 34 35 35 35 35 34 34 35 35 35 36 37 39 40 41 41 42 42
51 50 48 46 44 42 41 40 39 37 35 35 35 37 38 37 35 34 34 33 31 30 30 31 32 33 34 34 33 34 34 35 36 36 37 38 40 41 42 42 43 44
51 48 46 45 43 42 41 40 37 34 33 33 34 35 36 36 35 34 32 29 28 28 28 30 32 33 33 33 33 34 35 37 38 38 39 40 41 42 43 44 44 45
49 47 45 44 43 43 41 39 36 33 32 32 33 34 35 35 34 31 28 27 28 29 30 32 33 34 34 34 35 36 37 38 39 40 40 42 42 43 43 44 45 45
48 46 45 45 44 43 42 38 34 32 31 31 32 33 34 33 31 29 28 29 30 31 32 34 35 34 35 36 36 37 38 40 40 41 42 43 43 43 44 45 44 45
47 46 45 45 46 44 42 38 34 32 32 32 32 32 32 31 30 30 32 33 33 34 36 37 37 36 37 38 38 39 41 42 42 42 43 44 44 45 46 45 45 45
Wind_Direction
262 262 262 261 262 263 265 267 268 269 270 272 273 274 275 276 277 278 279 280 281 282 283 283 284 285 285 286 288 289 290 291 291 292 292 292 293 293 294 295 295 296
262 262 262 262 262 263 265 266 268 269 271 271 271 272 272 273 275 276 277 279 280 281 282 283 283 284 285 286 287 288 289 290 291 291 292 292 292 293 294 295 295 296
259 260 261 261 262 263 265 267 269 270 271 271 272 272 273 274 276 277 278 279 281 281 282 283 284 285 286 286 287 289 289 290 291 291 292 292 293 294 295 295 296 297
258 259 260 261 262 263 266 268 271 272 273 275 275 275 276 277 279 279 280 281 282 283 284 284 285 286 287 287 288 289 290 291 291 292 292 293 294 295 295 296 297 298
259 261 262 263 263 265 268 271 273 274 276 277 277 278 279 279 280 281 281 282 283 284 284 285 286 287 287 288 289 289 290 291 292 292 293 294 294 295 295 296 297 297
260 261 262 263 265 267 270 271 271 273 275 276 277 279 279 280 281 281 282 282 283 283 284 285 286 287 287 288 289 290 290 291 292 292 292 293 294 294 295 296 297 297
260 261 263 265 267 268 268 269 270 271 273 274 276 278 279 280 281 281 281 282 282 283 284 285 285 286 287 287 288 288 289 290 290 291 292 293 293 295 296 296 297 299
259 261 262 263 263 264 265 266 268 270 271 274 275 276 277 278 278 279 280 280 281 282 282 283 283 284 285 285 286 288 289 290 291 292 293 294 295 296 297 298 299 300
259 260 260 260 260 261 263 265 267 269 271 273 274 274 275 276 276 277 277 278 278 279 280 281 282 283 285 286 288 289 291 292 293 294 296 297 297 298 299 300 301 301
260 260 260 260 261 262 264 267 268 270 272 273 274 274 274 274 275 276 276 277 278 279 281 282 284 285 287 289 290 291 292 294 295 296 298 299 299 300 301 301 300 298
261 261 261 262 263 265 266 268 269 271 272 273 273 273 274 274 276 277 277 279 280 281 283 284 286 287 288 290 291 292 293 294 296 299 300 300 301 301 300 298 297 298
262 262 262 263 263 265 266 267 268 270 272 272 272 273 274 275 276 277 279 280 282 283 284 286 287 288 289 290 292 293 295 298 300 301 301 300 300 299 299 299 301 303
261 261 261 261 262 263 265 266 268 270 272 272 273 273 275 276 277 279 281 283 284 286 287 288 289 291 292 294 296 298 299 300 300 300 300 300 300 302 303 305 307 308
259 259 259 260 261 263 265 267 269 271 272 273 274 276 277 280 282 284 286 287 288 288 289 291 292 294 295 297 298 299 299 299 299 299 300 302 303 305 307 308 310 311
258 259 259 261 262 264 266 268 270 272 273 275 276 279 281 284 285 287 287 288 289 290 291 292 294 295 296 297 297 297 297 298 299 300 301 303 304 306 308 310 313 313
259 260 261 262 263 265 266 268 271 273 274 276 279 281 283 284 285 286 287 288 289 290 291 292 293 294 295 295 295 296 297 298 299 300 302 304 306 308 310 313 314 315
259 260 262 263 264 265 267 269 271 274 276 278 280 281 283 285 286 286 287 287 288 289 291 292 293 293 294 295 295 297 298 299 301 302 304 306 308 310 312 314 315 315
259 260 262 263 264 266 268 270 273 274 276 278 280 282 284 285 286 286 287 288 289 291 292 293 293 294 295 296 296 297 298 300 301 302 304 306 308 311 312 313 315 315
259 260 262 263 264 266 268 271 273 273 275 278 281 283 285 285 286 287 289 291 292 293 293 293 294 295 295 296 297 298 299 300 301 303 305 307 309 311 312 313 315 315
259 261 262 263 264 266 269 270 270 271 274 279 282 284 285 286 288 290 292 292 292 292 293 294 294 295 296 297 297 298 299 301 302 304 306 308 309 311 311 313 314 313
260 261 261 262 264 266 267 266 267 271 276 281 284 286 288 289 290 291 291 292 292 293 294 294 295 296 297 297 297 299 300 301 303 305 306 307 308 309 311 312 313 312
260 260 261 262 264 265 264 263 267 273 278 282 286 289 289 289 289 290 291 291 292 292 292 293 294 293 293 294 296 299 300 301 303 305 306 307 308 310 311 312 312 313
259 260 262 263 264 263 261 263 268 273 278 283 287 288 288 287 287 288 288 287 286 286 287 288 288 289 291 294 296 297 299 302 304 305 307 308 309 310 311 312 313 313
259 260 262 262 261 259 260 264 268 271 276 281 284 285 285 284 283 283 281 278 279 281 282 283 285 287 291 293 294 297 299 302 303 305 307 307 308 310 311 311 311 312
258 259 259 259 258 257 259 263 265 268 272 276 278 279 280 280 278 274 271 272 276 278 278 279 282 285 288 290 292 295 297 299 301 303 304 305 307 309 309 309 310 311
257 257 256 256 255 256 259 261 261 263 266 269 271 273 274 273 270 266 267 271 274 275 276 277 279 281 284 286 289 292 294 296 298 300 302 304 305 306 306 307 308 309
Height
5828 5828 5829 5829 5829 5829 5829 5828 5828 5827 5827 5827 5826 5825 5825 5824 5822 5821 5820 5819 5818 5817 5816 5814 5813 5811 5810 5808 5807 5805 5803 5802 5800 5798 5796 5793 5791 5789 5786 5784 5781 5778
5824 5824 5824 5824 5824 5824 5824 5823 5823 5823 5823 5823 5822 5821 5820 5819 5818 5817 5816 5815 5814 5813 5811 5810 5808 5807 5805 5804 5802 5800 5799 5797 5795 5793 5790 5788 5786 5784 5781 5779 5776 5774
5820 5819 5819 5819 5820 5819 5819 5819 5819 5819 5819 5818 5818 5817 5816 5815 5814 5813 5812 5811 5809 5808 5806 5805 5803 5802 5800 5799 5797 5795 5794 5792 5790 5788 5785 5783 5781 5779 5777 5774 5771 5769
5815 5815 5815 5815 5815 5815 5815 5815 5815 5815 5815 5814 5813 5812 5811 5811 5810 5808 5807 5806 5805 5803 5801 5800 5798 5797 5795 5793 5792 5790 5789 5787 5785 5782 5780 5778 5776 5774 5771 5769 5767 5765
5812 5812 5812 5812 5812 5811 5811 5812 5812 5811 5811 5810 5809 5808 5807 5806 5805 5804 5802 5801 5800 5798 5796 5795 5793 5791 5790 5788 5786 5785 5783 5781 5779 5777 5775 5773 5771 5768 5766 5763 5762 5759
5808 5808 5808 5808 5808 5808 5809 5809 5808 5807 5807 5806 5805 5804 5803 5802 5801 5799 5798 5797 5795 5793 5792 5790 5788 5786 5784 5782 5781 5779 5778 5776 5773 5771 5769 5767 5765 5762 5760 5758 5756 5754
5805 5805 5805 5805 5805 5805 5805 5805 5804 5804 5803 5802 5801 5800 5799 5798 5796 5795 5793 5792 5790 5788 5787 5785 5783 5781 5779 5777 5775 5773 5772 5770 5768 5765 5763 5762 5759 5757 5755 5752 5750 5748
5801 5802 5802 5802 5802 5802 5802 5801 5800 5800 5799 5798 5797 5796 5795 5793 5792 5790 5788 5787 5785 5783 5782 5780 5777 5775 5773 5771 5770 5768 5766 5764 5762 5760 5758 5756 5754 5752 5750 5747 5745 5743
5797 5798 5798 5798 5798 5798 5797 5797 5796 5795 5794 5794 5793 5791 5790 5788 5787 5785 5783 5782 5780 5778 5776 5774 5772 5770 5769 5767 5765 5763 5761 5759 5757 5755 5753 5750 5748 5746 5744 5742 5740 5737
5793 5794 5793 5794 5794 5793 5793 5792 5791 5790 5790 5789 5788 5786 5785 5783 5781 5780 5778 5776 5775 5773 5771 5769 5768 5766 5764 5762 5760 5758 5756 5754 5752 5750 5748 5745 5743 5741 5739 5737 5735 5733
5789 5789 5789 5789 5789 5788 5787 5787 5786 5785 5785 5784 5783 5781 5780 5778 5776 5775 5773 5771 5770 5768 5766 5765 5763 5761 5759 5757 5755 5753 5751 5749 5747 5745 5743 5740 5738 5736 5734 5732 5730 5728
5784 5784 5784 5784 5783 5783 5782 5781 5781 5780 5779 5778 5777 5776 5774 5773 5771 5769 5768 5767 5765 5763 5762 5760 5758 5756 5754 5752 5750 5747 5746 5744 5742 5740 5737 5735 5733 5731 5729 5727 5725 5722
5779 5779 5778 5778 5778 5777 5776 5776 5775 5774 5773 5772 5771 5770 5769 5767 5766 5764 5763 5762 5760 5758 5756 5754 5752 5750 5748 5746 5744 5742 5741 5739 5737 5734 5732 5730 5728 5726 5724 5721 5719 5717
5773 5773 5773 5772 5772 5771 5771 5770 5769 5768 5768 5767 5766 5765 5764 5762 5761 5759 5758 5756 5754 5753 5751 5749 5747 5745 5743 5741 5739 5737 5736 5733 5731 5729 5727 5725 5723 5721 5719 5716 5714 5711
5768 5767 5767 5766 5766 5766 5765 5764 5764 5763 5762 5761 5760 5760 5759 5757 5756 5754 5752 5750 5749 5747 5745 5743 5741 5740 5738 5736 5734 5732 5730 5728 5727 5725 5723 5721 5719 5716 5714 5711 5709 5706
5762 5761 5761 5760 5760 5760 5759 5759 5758 5758 5757 5756 5755 5755 5753 5752 5750 5748 5747 5745 5743 5741 5739 5738 5736 5735 5733 5731 5729 5727 5725 5723 5722 5720 5718 5716 5714 5711 5709 5706 5704 5701
5755 5755 5755 5754 5754 5754 5753 5753 5753 5752 5752 5751 5750 5749 5747 5746 5744 5742 5741 5739 5737 5735 5734 5733 5731 5730 5728 5726 5724 5723 5721 5719 5717 5715 5713 5711 5708 5706 5704 5701 5699 5696
5749 5748 5748 5748 5748 5748 5747 5747 5747 5747 5746 5745 5744 5743 5741 5740 5738 5736 5735 5733 5732 5730 5729 5727 5726 5724 5723 5721 5719 5718 5716 5714 5712 5710 5708 5706 5703 5701 5698 5696 5693 5691
5742 5742 5742 5741 5742 5742 5742 5742 5741 5741 5741 5739 5739 5738 5736 5734 5732 5731 5729 5728 5726 5725 5723 5722 5721 5719 5718 5716 5714 5712 5710 5709 5707 5705 5703 5700 5698 5695 5692 5690 5688 5686
5735 5735 5735 5735 5736 5736 5736 5736 5736 5735 5735 5734 5733 5732 5730 5729 5727 5725 5724 5722 5721 5719 5718 5717 5715 5713 5712 5710 5709 5707 5705 5703 5701 5699 5697 5694 5692 5690 5687 5685 5683 5681
5729 5729 5729 5729 5730 5730 5730 5731 5730 5730 5729 5728 5727 5726 5724 5722 5721 5720 5718 5716 5715 5714 5712 5711 5709 5708 5706 5705 5703 5701 5699 5697 5695 5693 5691 5689 5687 5685 5683 5681 5679 5677
5722 5723 5723 5724 5724 5725 5725 5725 5724 5724 5723 5722 5721 5719 5718 5716 5715 5714 5712 5711 5710 5709 5707 5706 5704 5702 5701 5699 5697 5695 5693 5692 5690 5688 5686 5684 5682 5680 5678 5677 5675 5672
5716 5717 5718 5718 5719 5719 5719 5718 5718 5718 5717 5716 5715 5713 5712 5710 5709 5708 5707 5706 5704 5703 5702 5700 5698 5697 5695 5694 5692 5690 5688 5687 5685 5683 5682 5680 5678 5676 5674 5672 5670 5668
5710 5711 5712 5712 5712 5712 5712 5712 5712 5711 5710 5709 5708 5707 5706 5704 5703 5702 5701 5700 5699 5698 5696 5695 5693 5692 5691 5689 5687 5685 5684 5682 5680 5678 5677 5674 5673 5671 5669 5667 5665 5662
5704 5705 5705 5705 5705 5706 5706 5705 5705 5704 5704 5703 5702 5701 5700 5698 5697 5697 5695 5694 5694 5693 5691 5690 5688 5687 5685 5684 5682 5680 5678 5676 5675 5673 5671 5669 5667 5665 5663 5661 5659 5656
5697 5698 5698 5698 5699 5699 5699 5698 5698 5697 5697 5697 5696 5695 5694 5692 5691 5691 5690 5689 5688 5687 5686 5684 5683 5682 5680 5678 5676 5675 5673 5671 5669 5667 5665 5663 5661 5659 5657 5654 5652 5650